Location: Knowlton
(51.2333°N, 1.2667°E)
Time: 03:52:49
(UTC+00:00)

OBJECT-B - Pass Details

Date: 18 April 2021
Orbit: 415 x 424 km, 97.0° (Epoch: 25 April)

Event Time Altitude Azimuth Distance (km) Brightness Sun altitude
Rises 19:46:07 0° 173° (S) 2,357 4.2 -7.9°
Reaches altitude 10° 19:48:06 10° 177° (S) 1,500 3.2 -8.2°
Maximum altitude 19:51:17 62° 259° (WSW) 480 1.3 -8.6°
Drops below altitude 10° 19:54:31 10° 341° (NNW) 1,520 4.4 -9.1°
Sets 19:56:33 0° 345° (NNW) 2,393 5.4 -9.3°
